Leadville, CO

9:23 PM MST on November 16, 2019 (GMT -0700)
Lake County

Weather History for KLXV - September, 2019

Change the Weather History Date:

Monday, September 16, 2019

  Actual Average Record
Temperature  
Mean Temperature 53 °F -  
Max Temperature 65 °F 61 °F 73 °F (2018)
Min Temperature 41 °F 31 °F 18 °F (1991)
Degree Days  
Heating Degree Days 12 19  
Month to date heating degree days 206 274  
Since 1 July heating degree days 799 996  
Cooling Degree Days 0 0  
Month to date cooling degree days 0 0  
Year to date cooling degree days 0 0  
Growing Degree Days 4 (Base 50)    
Moisture  
Dew Point 34 °F    
Average Humidity 48    
Maximum Humidity 67    
Minimum Humidity 28    
Precipitation  
Precipitation T in 0.03 in 0.29 in (2007)
Month to date precipitation 0.31 0.64  
Year to date precipitation 12.85 9.59  
Sea Level Pressure  
Sea Level Pressure 30.07 in    
Wind  
Wind Speed 5 mph (NNW)    
Max Wind Speed 14 mph    
Max Gust Speed 21 mph    
Visibility 6 miles    
Events      
T = Trace of Precipitation, MM = Missing Value Source: NWS Daily Summary

Daily Weather History Graph

Daily Weather History Graph

Search for Another Location

Airport or City:

Astronomy

Sep. 16, 2019 Rise Set
Actual Time 6:47 AM MDT 7:12 PM MDT
Civil Twilight 6:20 AM MDT 7:39 PM MDT
Nautical Twilight 5:48 AM MDT 8:10 PM MDT
Astronomical Twilight 5:16 AM MDT 8:42 PM MDT
Moon 8:49 PM MDT (9/16) 8:56 AM MDT (9/16)
Length of Visible Light 13h 18m
Length of Day
12h 24m
Waning Gibbous, 94% of the Moon is Illuminated
Sep 16
Waning Gibbous
Sep 21
Last Quarter
Sep 28
New
Oct 5
First Quarter
Oct 13
Full

Hourly Weather History & Observations

Time (MDT) Temp. Windchill Dew Point Humidity Pressure Visibility Wind Dir Wind Speed Gust Speed Precip Events Conditions
12:53 AM 46.9 °F - 32.0 °F 56% 29.87 in 10.0 mi Calm Calm - N/A   Overcast
1:53 AM 45.0 °F 43.5 °F 32.0 °F 60% 29.89 in 10.0 mi ENE 3.5 mph - N/A   Overcast
2:53 AM 44.1 °F 42.5 °F 32.0 °F 63% 29.88 in 10.0 mi East 3.5 mph - N/A   Overcast
3:53 AM 43.0 °F 38.8 °F 30.9 °F 62% 29.88 in 10.0 mi ENE 6.9 mph - N/A   Overcast
4:53 AM 44.1 °F 42.5 °F 33.1 °F 65% 29.88 in 10.0 mi North 3.5 mph - N/A   Overcast
5:53 AM 44.1 °F - 33.1 °F 65% 29.89 in 10.0 mi Calm Calm - N/A   Overcast
7:26 AM 44.1 °F - 33.1 °F 65% 30.38 in 2.5 mi Calm Calm - N/A   Haze
7:53 AM 46.0 °F - 34.0 °F 63% 29.93 in 3.0 mi Calm Calm - N/A   Haze
8:39 AM 46.9 °F - 36.0 °F 66% 30.39 in 2.5 mi Calm Calm - N/A   Haze
8:48 AM 46.4 °F - 35.6 °F 66% 30.39 in 8.0 mi Calm Calm - N/A   Overcast
8:53 AM 46.9 °F - 36.0 °F 66% 29.96 in 9.0 mi Calm Calm - N/A   Overcast
9:00 AM 46.9 °F - 36.0 °F 66% 30.39 in 1.8 mi WNW 3.5 mph - N/A   Haze
9:07 AM 46.9 °F - 37.0 °F 68% 30.39 in 3.0 mi WNW 3.5 mph - N/A   Haze
9:53 AM 51.1 °F - 37.9 °F 61% 29.94 in 5.0 mi Variable 3.5 mph - 0.00 in   Haze
10:01 AM 51.1 °F - 37.9 °F 61% 30.39 in 2.0 mi WSW 3.5 mph - N/A   Haze
10:11 AM 52.0 °F - 37.0 °F 57% 30.39 in 1.0 mi WNW 4.6 mph - N/A   Haze
10:29 AM 53.1 °F - 37.9 °F 57% 30.39 in 4.0 mi Calm Calm - N/A   Haze
10:53 AM 55.0 °F - 34.0 °F 45% 29.93 in 1.5 mi West 3.5 mph - N/A   Haze
11:07 AM 55.9 °F - 30.9 °F 39% 30.38 in - North - - N/A   Overcast
11:14 AM 57.9 °F - 32.0 °F 37% 30.38 in 1.2 mi Variable 4.6 mph - N/A   Haze
11:17 AM 57.9 °F - 32.0 °F 37% 30.37 in 5.0 mi North 4.6 mph - N/A   Haze
11:53 AM 57.9 °F - 33.1 °F 39% 29.90 in 10.0 mi Calm Calm - N/A   Overcast
12:53 PM 60.1 °F - 36.0 °F 41% 29.85 in 10.0 mi West 8.1 mph - N/A   Scattered Clouds
1:53 PM 60.1 °F - 36.0 °F 41% 29.85 in 10.0 mi NNW 6.9 mph - 0.00 in   Mostly Cloudy
2:31 PM 57.2 °F - 39.2 °F 51% 30.32 in 1.8 mi SSE 6.9 mph - N/A   Haze
2:37 PM 57.9 °F - 37.0 °F 46% 30.32 in 3.0 mi North - - N/A   Haze
2:53 PM 57.9 °F - 37.0 °F 46% 29.87 in 3.0 mi SSE 8.1 mph - N/A   Haze
3:48 PM 62.6 °F - 35.6 °F 37% 30.30 in 1.2 mi Variable 5.8 mph - N/A   Haze
3:53 PM 62.1 °F - 37.0 °F 39% 29.82 in 1.0 mi SW 10.4 mph 16.1 mph N/A   Haze
4:53 PM 61.0 °F - 30.0 °F 31% 29.82 in 10.0 mi West 8.1 mph 18.4 mph N/A   Mostly Cloudy
5:53 PM 64.0 °F - 30.0 °F 28% 29.81 in 10.0 mi NW 8.1 mph - N/A   Mostly Cloudy
6:53 PM 57.9 °F - 34.0 °F 41% 29.85 in 10.0 mi WNW 10.4 mph - N/A   Mostly Cloudy
7:53 PM 54.0 °F - 34.0 °F 47% 29.87 in 10.0 mi North 5.8 mph 17.3 mph N/A   Clear
8:53 PM 48.9 °F - 33.1 °F 54% 29.91 in 10.0 mi NE 4.6 mph - N/A   Clear
9:53 PM 44.1 °F 40.8 °F 32.0 °F 63% 29.92 in 10.0 mi ENE 5.8 mph - N/A   Clear
10:53 PM 45.0 °F 43.5 °F 33.1 °F 63% 29.88 in 10.0 mi ENE 3.5 mph - N/A   Partly Cloudy
11:53 PM 42.1 °F 38.4 °F 32.0 °F 67% 29.87 in 10.0 mi ENE 5.8 mph - N/A   Clear